Regional Weather Roundup
Issued by NWS Jackson, KY

Home | Current Version | Previous Version | Graphics & Text | Print | Product List | Glossary On
Versions: 1 2 3 4 5 6 7 8 9 10 11 12 13 14 15 16 17 18 19 20 21 22 23 24 25 26 27 28 29 30 31 32 33 34 35 36 37 38 39 40 41 42 43 44 45 46 47 48 49 50
000
ASUS43 KJKL 220710
RWRJKL

EAST KENTUCKY HOURLY WEATHER ROUNDUP
NATIONAL WEATHER SERVICE JACKSON KY
200 AM EST MON DEC 22 2014

NOTE: "FAIR" INDICATES FEW OR NO CLOUDS BELOW 12,000 FEET WITH
NO SIGNIFICANT WEATHER AND/OR OBSTRUCTIONS TO VISIBILITY.

* THESE REPORTS ARE NOT UNDER NWS QUALITY CONTROL AND MAY NOT
  REPORT WEATHER SUCH AS PRECIPITATION AND FOG.

KYZ079-080-083-085-087-088-110-112-115-119-120-220800
...EASTERN KENTUCKY...

CITY           SKY/WX    TMP DP  RH WIND       PRES   REMARKS
JACKSON        CLOUDY    37  26  64 E3        30.05F
LONDON         PTCLDY    40  29  64 E5        30.02F
SOMERSET*      MOCLDY    36  30  80 CALM      30.04F
MONTICELLO*    CLOUDY    34  31  89 CALM      30.05F
MIDDLESBORO*   CLOUDY    39  36  87 NW5       30.07F
HARLAN APT*    CLOUDY    34  32  93 E8        30.07F WCI  27
HAZARD APT*    PTSUNNY   37  28  70 CALM      30.06F
BLACK MTN*       N/A     30  34 100 S3          N/A
PIKEVILLE APT* PTCLDY    32  28  86 S5        30.08F WCI  27
BIG SANDY*     PTSUNNY   34  28  79 CALM      30.08F
MOREHEAD APT*  CLOUDY    37  27  65 VRB5      30.08F WCI  34
$$

KYZ035-036-041-042-044-050-067-078-099-220800
...CENTRAL KENTUCKY...

CITY           SKY/WX    TMP DP  RH WIND       PRES   REMARKS
MT STERLING*   CLOUDY    34  28  80 SE5       30.06F WCI  30
FLEMING/MASON* CLOUDY    30  27  86 E7        30.07F WCI  23
DANVILLE*      CLOUDY    32  28  86 CALM      30.04F
RICHMOND*      CLEAR     34  27  75 E6        30.03S WCI  29
LEXINGTON      CLOUDY    36  28  73 SE9       30.03F WCI  29
FRANKFORT      CLOUDY    31  26  82 NE5       30.03F WCI  26
$$

KYZ091>093-OHZ055-061-077-WVZ005-015-034-035-042-220800
...SOUTHERN OHIO/WEST VIRGINIA...

CITY           SKY/WX    TMP DP  RH WIND       PRES   REMARKS
COVINGTON      MOCLDY    30  23  75 E5        30.06F WCI  25
COLUMBUS       PTCLDY    27  21  78 E5        30.11F WCI  22
DAYTON         PTCLDY    28  24  85 E7        30.08F WCI  21
WILMINGTON     CLEAR     25  22  88 E9        30.07F FOG     WCI  15
HUNTINGTON     CLOUDY    31  27  85 E7        30.08F WCI  24
CHARLESTON     MOCLDY    30  27  88 CALM      30.10F
PINEVILLE*     PTCLDY    29  29 100 MISG      30.15F
BECKLEY        PTCLDY    35  29  78 SE13G21   30.10F WCI  26
BLUEFIELD      CLOUDY    37  32  82 VRB6      30.11S WCI  32
$$

VAZ002-007-008-TNZ017-027-036-066-071-220800
...SOUTHWEST VIRGINIA/EAST TENNESSEE...

CITY           SKY/WX    TMP DP  RH WIND       PRES   REMARKS
WISE*          PTCLDY    36  32  87 S3        30.08S
ABINGDON*      MOCLDY    40  35  82 E9        30.09S WCI  34
BRISTOL        MOCLDY    36  33  89 CALM      30.09F
KNOXVILLE      CLOUDY    44  36  73 N3        30.05F
OAK RIDGE      CLOUDY    45  37  73 CALM      30.07F
CROSSVILLE     CLOUDY    45  38  76 SE3       30.03F
NASHVILLE      PTCLDY    42  39  89 S9        30.00F
$$

...KEY TO REMARKS...
VSB - VISIBILITY IN MILES
WCI - WIND CHILL INDEX
HX  - HEAT INDEX

$$


USA.gov is the U.S. government's official web portal to all federal, state and local government web resources and services.